GW4940 Weather Reports


time (UTC)temp
F
wind
direction
speed
knots
gust
knots
rain 1hr
in
rain 24hr
in
rain mn
in
humidity
%
barometer
mb
20260505023109 51 266 0.0 0.0 0.00 0.00 0.00 94 1010.7
20260505022606 52 266 0.0 0.0 0.00 0.00 0.00 94 1010.8
20260505022102 52 255 0.0 0.0 0.00 0.00 0.00 93 1010.6
20260505021559 52 255 0.0 0.0 0.00 0.00 0.00 93 1010.6
20260505021056 52 255 0.0 0.0 0.00 0.00 0.00 93 1010.7
20260505020556 53 254 0.0 0.0 0.00 0.00 0.00 92 1010.7
20260505020053 53 263 0.0 0.0 0.00 0.00 0.00 92 1010.7
20260505015550 53 263 0.0 0.0 0.00 0.00 0.00 92 1010.7
20260505015047 53 263 0.0 0.0 0.00 0.00 0.00 92 1010.8
20260505014543 53 263 0.0 0.0 0.00 0.00 0.00 91 1010.7
20260505014041 53 263 0.0 0.0 0.00 0.00 0.00 91 1010.7
20260505013538 54 263 0.0 0.0 0.00 0.00 0.00 91 1010.6
20260505013035 54 262 0.0 0.0 0.00 0.00 0.00 90 1010.7
20260505012533 54 262 0.0 0.0 0.00 0.00 0.00 89 1010.8
20260505012030 55 260 0.0 0.0 0.00 0.00 0.00 88 1010.7
20260505011525 55 260 0.0 0.9 0.00 0.00 0.00 88 1010.6
20260505011023 55 220 0.0 0.0 0.00 0.00 0.00 87 1010.6
20260505010518 56 220 0.0 0.0 0.00 0.00 0.00 87 1010.8
20260505010015 56 220 0.0 0.0 0.00 0.00 0.00 86 1010.6
20260505005511 56 220 0.0 0.0 0.00 0.00 0.00 86 1010.7
20260505005009 57 220 0.0 0.0 0.00 0.00 0.00 85 1010.7
20260505004506 57 220 0.0 0.0 0.00 0.00 0.00 83 1010.9
20260505004002 58 220 0.0 0.0 0.00 0.00 0.00 83 1010.6
20260505003459 59 221 0.0 0.0 0.00 0.00 0.00 81 1010.6
20260505002956 59 242 0.0 0.0 0.00 0.00 0.00 80 1010.8
20260505002452 60 252 0.0 0.9 0.00 0.00 0.00 79 1010.8
20260505001950 61 200 0.0 0.0 0.00 0.00 0.00 78 1010.9
20260505001448 61 204 0.0 0.0 0.00 0.00 0.00 76 1010.7
20260505000945 62 221 0.0 0.0 0.00 0.00 0.00 76 1010.7
20260505000443 63 199 0.0 0.0 0.00 0.00 0.00 71 1010.8
20260504235939 64 272 0.0 0.0 0.00 0.00 0.00 70 1010.7
20260504235437 66 308 0.0 0.0 0.00 0.00 0.00 64 1010.7
20260504234932 67 301 0.0 0.9 0.00 0.00 0.00 62 1010.7
20260504234430 67 344 0.0 0.0 0.00 0.00 0.00 59 1010.8
20260504233926 68 358 0.0 0.9 0.00 0.00 0.00 55 1010.8
20260504233422 68 277 0.0 0.0 0.00 0.00 0.00 57 1011.0
20260504232919 68 288 0.0 0.0 0.00 0.00 0.00 55 1010.9
20260504232417 69 53 0.0 0.9 0.00 0.00 0.00 56 1010.8
20260504231914 69 276 0.9 2.6 0.00 0.00 0.00 51 1010.8
20260504231409 69 89 1.7 1.7 0.00 0.00 0.00 53 1010.6
20260504230906 70 352 1.7 2.6 0.00 0.00 0.00 51 1010.8
20260504230403 70 302 1.7 2.6 0.00 0.00 0.00 51 1010.7
20260504225902 70 276 1.7 5.2 0.00 0.00 0.00 53 1010.8
20260504225358 70 359 0.9 2.6 0.00 0.00 0.00 52 1010.7
20260504224856 71 303 1.7 2.6 0.00 0.00 0.00 49 1010.8
20260504224352 71 289 0.9 1.7 0.00 0.00 0.00 51 1010.7
20260504223849 71 9 0.9 2.6 0.00 0.00 0.00 48 1010.6
20260504223345 71 254 1.7 3.5 0.00 0.00 0.00 48 1010.5
20260504222841 71 307 1.7 1.7 0.00 0.00 0.00 51 1010.5
20260504222338 71 244 2.6 5.2 0.00 0.00 0.00 49 1010.8
20260504221837 71 245 4.3 7.0 0.00 0.00 0.00 49 1010.7
20260504221333 72 281 1.7 5.2 0.00 0.00 0.00 49 1010.6
20260504220830 73 56 2.6 6.1 0.00 0.00 0.00 46 1010.5
20260504220327 73 293 0.0 5.2 0.00 0.00 0.00 47 1010.6
20260504215824 71 290 5.2 6.1 0.00 0.00 0.00 48 1010.8
20260504215320 71 351 1.7 2.6 0.00 0.00 0.00 49 1010.8
20260504214817 71 340 3.5 5.2 0.00 0.00 0.00 49 1010.9
20260504214314 72 68 2.6 7.8 0.00 0.00 0.00 48 1010.7
20260504213810 74 255 0.9 2.6 0.00 0.00 0.00 50 1010.7
20260504213306 74 4 2.6 3.5 0.00 0.00 0.00 46 1010.4
20260504212804 73 261 1.7 3.5 0.00 0.00 0.00 46 1010.5
20260504212300 74 107 0.9 6.1 0.00 0.00 0.00 47 1010.3
20260504211758 72 305 0.9 1.7 0.00 0.00 0.00 48 1010.4
20260504211253 71 333 0.9 7.0 0.00 0.00 0.00 51 1010.3
20260504210751 71 322 4.3 5.2 0.00 0.00 0.00 48 1010.6
20260504210248 72 22 1.7 3.5 0.00 0.00 0.00 48 1010.7
20260504205745 72 2 0.0 1.7 0.00 0.00 0.00 50 1010.6
20260504205243 72 308 1.7 2.6 0.00 0.00 0.00 49 1010.5
20260504204741 71 81 0.9 5.2 0.00 0.00 0.00 47 1010.7
20260504204239 71 275 1.7 3.5 0.00 0.00 0.00 48 1010.7
20260504203738 71 331 0.9 5.2 0.00 0.00 0.00 49 1010.8
20260504203235 71 257 1.7 3.5 0.00 0.00 0.00 50 1010.8
20260504202735 71 344 5.2 7.0 0.00 0.00 0.00 49 1010.7
20260504202232 71 43 1.7 5.2 0.00 0.00 0.00 48 1010.9
20260504201729 71 68 0.9 2.6 0.00 0.00 0.00 52 1010.7
20260504201226 71 286 1.7 2.6 0.00 0.00 0.00 48 1010.8
20260504200724 71 261 0.9 2.6 0.00 0.00 0.00 49 1010.9
20260504200220 72 336 2.6 5.2 0.00 0.00 0.00 48 1010.8
20260504195717 71 322 1.7 5.2 0.00 0.00 0.00 49 1010.8
20260504195212 71 257 1.7 7.0 0.00 0.00 0.00 48 1011.1
20260504194710 71 271 4.3 7.0 0.00 0.00 0.00 46 1011.1
20260504194206 71 240 1.7 3.5 0.00 0.00 0.00 49 1011.0
20260504193702 71 15 1.7 7.0 0.00 0.00 0.00 47 1011.1
20260504193200 72 346 1.7 3.5 0.00 0.00 0.00 47 1011.3
20260504192658 73 81 2.6 6.1 0.00 0.00 0.00 48 1011.1
20260504192156 74 354 2.6 6.1 0.00 0.00 0.00 44 1011.0
20260504191654 73 328 5.2 7.0 0.00 0.00 0.00 46 1010.9
20260504191150 73 349 0.0 7.8 0.00 0.00 0.00 47 1010.7
20260504190646 73 258 0.9 8.7 0.00 0.00 0.00 48 1010.9
20260504190143 72 106 2.6 12.2 0.00 0.00 0.00 45 1010.9
20260504185639 73 278 5.2 7.0 0.00 0.00 0.00 46 1010.8
20260504185136 73 326 0.9 6.1 0.00 0.00 0.00 47 1011.1
20260504184632 72 272 1.7 5.2 0.00 0.00 0.00 47 1011.2
20260504184127 72 210 3.5 6.1 0.00 0.00 0.00 49 1011.1
20260504183624 73 353 1.7 7.0 0.00 0.00 0.00 48 1011.3
20260504183122 72 284 3.5 7.0 0.00 0.00 0.00 47 1011.7
20260504182619 71 312 3.5 11.3 0.00 0.00 0.00 48 1011.4
20260504182117 72 110 1.7 8.7 0.00 0.00 0.00 49 1011.4
20260504181614 70 308 1.7 3.5 0.00 0.00 0.00 52 1011.7
20260504181111 71 257 1.7 9.6 0.00 0.00 0.00 48 1011.7
20260504180610 70 282 1.7 7.0 0.00 0.00 0.00 50 1011.7
20260504180109 71 37 3.5 6.1 0.00 0.00 0.00 48 1011.7
20260504175606 70 73 7.8 12.2 0.00 0.00 0.00 49 1012.0
20260504175102 69 305 1.7 7.0 0.00 0.00 0.00 50 1011.9
20260504174601 69 333 4.3 9.6 0.00 0.00 0.00 51 1012.1
20260504174057 68 305 3.5 7.0 0.00 0.00 0.00 52 1012.2
20260504173554 68 303 3.5 13.9 0.00 0.00 0.00 51 1012.3
20260504173052 68 340 3.5 7.8 0.00 0.00 0.00 52 1012.5
20260504172547 68 13 1.7 6.1 0.00 0.00 0.00 51 1012.3
20260504172044 67 197 0.9 5.2 0.00 0.00 0.00 54 1012.6
20260504171541 67 13 4.3 5.2 0.00 0.00 0.00 53 1012.8
20260504171038 67 122 0.9 9.6 0.00 0.00 0.00 52 1012.9
20260504170533 67 263 2.6 5.2 0.00 0.00 0.00 54 1012.9
20260504150918 65 158 0.9 7.8 0.00 0.00 0.00 51 1013.9
20260504150414 65 333 0.9 7.8 0.00 0.00 0.00 53 1014.2
20260504140841 62 277 0.0 2.6 0.00 0.00 0.00 53 1014.1
20260504140336 62 358 0.9 6.1 0.00 0.00 0.00 51 1014.2
20260504130806 59 305 5.2 8.7 0.00 0.00 0.00 52 1014.3
20260504130302 58 24 0.9 6.1 0.00 0.00 0.00 53 1014.1
20260504120225 49 156 0.0 0.9 0.00 0.00 0.00 83 1014.3
20260504110652 46 12 0.0 0.0 0.00 0.00 0.00 93 1014.7
20260504110149 46 10 0.0 0.0 0.00 0.00 0.00 92 1014.7
20260504100615 45 351 0.0 0.0 0.00 0.00 0.00 91 1014.9
20260504100113 45 351 0.0 0.0 0.00 0.00 0.00 90 1014.9
20260504081506 46 355 0.0 0.9 0.00 0.00 0.00 86 1015.6
20260504081001 46 338 0.0 0.9 0.00 0.00 0.00 87 1015.4
20260504080458 46 338 0.0 0.9 0.00 0.00 0.00 87 1015.4
20260504050311 45 241 0.0 0.0 0.00 0.00 0.00 85 1016.3
20260504045808 45 241 0.0 0.0 0.00 0.00 0.00 86 1016.2
20260504045308 46 241 0.0 0.0 0.00 0.00 0.00 85 1016.1
20260504044806 46 241 0.0 0.0 0.00 0.00 0.00 85 1016.3
20260504044303 46 241 0.0 0.0 0.00 0.00 0.00 85 1016.3
20260504043800 46 241 0.0 0.0 0.00 0.00 0.00 85 1016.2
20260504043257 46 241 0.0 0.0 0.00 0.00 0.00 86 1016.2
20260504042755 46 241 0.0 0.0 0.00 0.00 0.00 85 1016.1
20260504042251 46 241 0.0 0.0 0.00 0.00 0.00 86 1016.2
20260504041747 46 241 0.0 0.0 0.00 0.00 0.00 87 1016.1
20260504041243 46 241 0.0 0.0 0.00 0.00 0.00 87 1016.1
20260504040739 46 241 0.0 0.0 0.00 0.00 0.00 86 1016.4
20260504040238 46 241 0.0 0.0 0.00 0.00 0.00 83 1016.3
20260504035733 47 241 0.0 0.0 0.00 0.00 0.00 82 1016.4
20260504035231 47 241 0.0 0.0 0.00 0.00 0.00 83 1016.3
20260504034728 47 241 0.0 0.0 0.00 0.00 0.00 82 1016.4
20260504034225 47 241 0.0 0.0 0.00 0.00 0.00 80 1016.3
20260504033723 47 241 0.0 0.0 0.00 0.00 0.00 80 1016.4
20260504033220 47 241 0.0 0.0 0.00 0.00 0.00 81 1016.4
20260504032717 47 241 0.0 0.0 0.00 0.00 0.00 80 1016.3
20260504032214 47 241 0.0 0.0 0.00 0.00 0.00 81 1016.3
20260504031711 47 241 0.0 0.0 0.00 0.00 0.00 79 1016.4
20260504031208 48 241 0.0 0.0 0.00 0.00 0.00 81 1016.4
20260504030704 48 241 0.0 0.0 0.00 0.00 0.00 80 1016.5
20260504030201 48 241 0.0 0.0 0.00 0.00 0.00 78 1016.4
20260504025658 47 240 0.0 0.0 0.00 0.00 0.00 80 1016.3
20260504025154 47 240 0.0 0.0 0.00 0.00 0.00 82 1016.3
20260504024652 47 240 0.0 0.0 0.00 0.00 0.00 80 1016.3
20260504024148 47 240 0.0 0.0 0.00 0.00 0.00 81 1016.4
20260504023645 47 240 0.0 0.0 0.00 0.00 0.00 81 1016.3